| time (UTC) | temp F | wind direction | speed knots | gust knots | rain 1hr in | rain 24hr in | rain mn in | humidity % | barometer mb |
| 20260505040005 | 54 | 177 | 0.0 | 0.0 | 0.00 | 0.00 | 0.00 | 84 | 1014.2 |
| 20260505035506 | 54 | 177 | 0.0 | 0.0 | 0.00 | 0.00 | 0.00 | 83 | 1014.2 |
| 20260505035006 | 54 | 177 | 0.0 | 0.0 | 0.00 | 0.00 | 0.00 | 83 | 1014.2 |
| 20260505034504 | 55 | 177 | 0.0 | 0.0 | 0.00 | 0.00 | 0.00 | 83 | 1014.2 |
| 20260505034005 | 55 | 177 | 0.0 | 0.0 | 0.00 | 0.00 | 0.00 | 83 | 1014.2 |
| 20260505033505 | 55 | 177 | 0.0 | 0.0 | 0.00 | 0.00 | 0.00 | 82 | 1014.2 |
| 20260505033006 | 55 | 177 | 0.0 | 0.0 | 0.00 | 0.00 | 0.00 | 82 | 1014.2 |
| 20260505032506 | 55 | 177 | 0.0 | 0.0 | 0.00 | 0.00 | 0.00 | 81 | 1014.2 |
| 20260505032005 | 56 | 177 | 0.0 | 0.0 | 0.00 | 0.00 | 0.00 | 81 | 1014.2 |
| 20260505031506 | 56 | 177 | 0.0 | 0.0 | 0.00 | 0.00 | 0.00 | 81 | 1014.2 |
| 20260505031005 | 56 | 177 | 0.0 | 0.0 | 0.00 | 0.00 | 0.00 | 80 | 1014.2 |
| 20260505030505 | 56 | 177 | 0.0 | 0.0 | 0.00 | 0.00 | 0.00 | 80 | 1014.2 |
| 20260505030005 | 56 | 177 | 0.0 | 0.0 | 0.00 | 0.00 | 0.00 | 79 | 1013.3 |
| 20260505025007 | 57 | 177 | 0.0 | 0.0 | 0.00 | 0.00 | 0.00 | 78 | 1013.3 |
| 20260505024506 | 57 | 177 | 0.0 | 0.0 | 0.00 | 0.00 | 0.00 | 77 | 1013.3 |
| 20260505024005 | 58 | 177 | 0.0 | 0.0 | 0.00 | 0.00 | 0.00 | 77 | 1013.3 |
| 20260505023506 | 58 | 177 | 0.0 | 0.0 | 0.00 | 0.00 | 0.00 | 77 | 1013.3 |
| 20260505023006 | 58 | 177 | 0.0 | 0.0 | 0.00 | 0.00 | 0.00 | 76 | 1013.3 |
| 20260505022504 | 58 | 177 | 0.0 | 0.0 | 0.00 | 0.00 | 0.00 | 75 | 1013.3 |
| 20260505021505 | 59 | 177 | 0.0 | 0.9 | 0.00 | 0.00 | 0.00 | 74 | 1013.3 |
| 20260505021005 | 59 | 177 | 0.0 | 0.0 | 0.00 | 0.00 | 0.00 | 73 | 1013.3 |
| 20260505020505 | 59 | 177 | 0.0 | 0.0 | 0.00 | 0.00 | 0.00 | 72 | 1013.3 |
| 20260505020005 | 60 | 177 | 0.0 | 0.0 | 0.00 | 0.00 | 0.00 | 71 | 1013.3 |
| 20260505015505 | 60 | 177 | 0.0 | 0.0 | 0.00 | 0.00 | 0.00 | 70 | 1013.3 |
| 20260505015006 | 60 | 177 | 0.0 | 0.0 | 0.00 | 0.00 | 0.00 | 69 | 1013.3 |
| 20260505014506 | 61 | 177 | 0.0 | 0.0 | 0.00 | 0.00 | 0.00 | 68 | 1013.3 |
| 20260505014005 | 61 | 177 | 0.0 | 0.0 | 0.00 | 0.00 | 0.00 | 67 | 1013.3 |
| 20260505013505 | 62 | 177 | 0.0 | 0.0 | 0.00 | 0.00 | 0.00 | 66 | 1013.3 |
| 20260505013005 | 62 | 177 | 0.0 | 0.0 | 0.00 | 0.00 | 0.00 | 65 | 1013.3 |
| 20260505012506 | 63 | 177 | 0.0 | 0.0 | 0.00 | 0.00 | 0.00 | 64 | 1013.3 |
| 20260505012005 | 63 | 177 | 0.0 | 0.0 | 0.00 | 0.00 | 0.00 | 63 | 1013.3 |
| 20260505011510 | 63 | 177 | 0.0 | 0.0 | 0.00 | 0.00 | 0.00 | 62 | 1013.3 |
| 20260505011005 | 64 | 177 | 0.0 | 0.0 | 0.00 | 0.00 | 0.00 | 61 | 1013.3 |
| 20260505010505 | 65 | 177 | 0.0 | 0.0 | 0.00 | 0.00 | 0.00 | 60 | 1013.3 |
| 20260505010006 | 65 | 177 | 0.0 | 0.0 | 0.00 | 0.00 | 0.00 | 58 | 1013.1 |
| 20260505005005 | 66 | 177 | 0.0 | 0.0 | 0.00 | 0.00 | 0.00 | 57 | 1013.1 |
| 20260505004505 | 67 | 177 | 0.0 | 0.0 | 0.00 | 0.00 | 0.00 | 56 | 1013.1 |
| 20260505004006 | 68 | 177 | 0.0 | 0.0 | 0.00 | 0.00 | 0.00 | 53 | 1013.1 |
| 20260505003506 | 69 | 177 | 0.0 | 0.0 | 0.00 | 0.00 | 0.00 | 48 | 1013.1 |
| 20260505003006 | 69 | 177 | 0.0 | 0.0 | 0.00 | 0.00 | 0.00 | 46 | 1013.1 |
| 20260505002505 | 70 | 177 | 0.0 | 0.0 | 0.00 | 0.00 | 0.00 | 45 | 1013.1 |
| 20260505002005 | 71 | 177 | 0.0 | 0.9 | 0.00 | 0.00 | 0.00 | 43 | 1013.1 |
| 20260505001505 | 72 | 122 | 0.0 | 1.7 | 0.00 | 0.00 | 0.00 | 42 | 1013.1 |
| 20260505001005 | 72 | 117 | 0.9 | 2.6 | 0.00 | 0.00 | 0.00 | 42 | 1013.1 |
| 20260505000506 | 72 | 121 | 0.0 | 1.7 | 0.00 | 0.00 | 0.00 | 41 | 1013.1 |
| 20260504235505 | 73 | 137 | 0.9 | 2.6 | 0.00 | 0.00 | 0.00 | 41 | 1013.1 |
| 20260504235006 | 73 | 4 | 0.0 | 2.6 | 0.00 | 0.00 | 0.00 | 41 | 1013.1 |
| 20260504234505 | 74 | 124 | 0.9 | 2.6 | 0.00 | 0.00 | 0.00 | 40 | 1013.1 |
| 20260504234005 | 74 | 151 | 1.7 | 4.3 | 0.00 | 0.00 | 0.00 | 40 | 1013.2 |
| 20260504233506 | 74 | 166 | 0.9 | 2.6 | 0.00 | 0.00 | 0.00 | 41 | 1013.2 |
| 20260504233005 | 74 | 135 | 1.7 | 2.6 | 0.00 | 0.00 | 0.00 | 40 | 1013.2 |
| 20260504232504 | 75 | 161 | 0.0 | 2.6 | 0.00 | 0.00 | 0.00 | 40 | 1013.2 |
| 20260504232005 | 75 | 153 | 0.9 | 2.6 | 0.00 | 0.00 | 0.00 | 39 | 1013.2 |
| 20260504231505 | 75 | 14 | 0.9 | 2.6 | 0.00 | 0.00 | 0.00 | 39 | 1013.2 |
| 20260504231006 | 75 | 142 | 1.7 | 5.2 | 0.00 | 0.00 | 0.00 | 38 | 1013.2 |
| 20260504230505 | 75 | 126 | 0.9 | 2.6 | 0.00 | 0.00 | 0.00 | 37 | 1013.2 |
| 20260504230005 | 75 | 122 | 0.9 | 2.6 | 0.00 | 0.00 | 0.00 | 37 | 1013.2 |
| 20260504225506 | 76 | 253 | 0.9 | 2.6 | 0.00 | 0.00 | 0.00 | 37 | 1013.2 |
| 20260504225006 | 76 | 131 | 1.7 | 4.3 | 0.00 | 0.00 | 0.00 | 36 | 1013.2 |
| 20260504224006 | 76 | 78 | 0.9 | 2.6 | 0.00 | 0.00 | 0.00 | 36 | 1013.2 |
| 20260504223505 | 76 | 197 | 0.9 | 2.6 | 0.00 | 0.00 | 0.00 | 36 | 1013.2 |
| 20260504223005 | 76 | 181 | 0.9 | 2.6 | 0.00 | 0.00 | 0.00 | 36 | 1013.2 |
| 20260504222505 | 77 | 193 | 0.9 | 2.6 | 0.00 | 0.00 | 0.00 | 35 | 1013.2 |
| 20260504222006 | 77 | 145 | 0.9 | 2.6 | 0.00 | 0.00 | 0.00 | 36 | 1013.2 |
| 20260504221505 | 77 | 206 | 0.9 | 2.6 | 0.00 | 0.00 | 0.00 | 35 | 1013.2 |
| 20260504221006 | 77 | 65 | 0.9 | 5.2 | 0.00 | 0.00 | 0.00 | 36 | 1013.2 |
| 20260504220505 | 77 | 103 | 0.9 | 2.6 | 0.00 | 0.00 | 0.00 | 36 | 1013.2 |
| 20260504220005 | 77 | 11 | 0.0 | 4.3 | 0.00 | 0.00 | 0.00 | 36 | 1013.1 |
| 20260504215504 | 77 | 168 | 0.9 | 2.6 | 0.00 | 0.00 | 0.00 | 36 | 1013.1 |
| 20260504214005 | 78 | 126 | 1.7 | 6.1 | 0.00 | 0.00 | 0.00 | 37 | 1013.1 |
| 20260504213506 | 78 | 193 | 1.7 | 6.1 | 0.00 | 0.00 | 0.00 | 38 | 1013.1 |
| 20260504213007 | 78 | 79 | 0.9 | 6.1 | 0.00 | 0.00 | 0.00 | 39 | 1013.1 |
| 20260504212005 | 77 | 219 | 0.9 | 4.3 | 0.00 | 0.00 | 0.00 | 40 | 1013.1 |
| 20260504211505 | 77 | 52 | 0.0 | 1.7 | 0.00 | 0.00 | 0.00 | 40 | 1013.1 |
| 20260504211005 | 78 | 109 | 0.0 | 1.7 | 0.00 | 0.00 | 0.00 | 39 | 1013.1 |
| 20260504210505 | 79 | 74 | 0.0 | 4.3 | 0.00 | 0.00 | 0.00 | 41 | 1013.1 |
| 20260504205505 | 78 | 299 | 0.9 | 2.6 | 0.00 | 0.00 | 0.00 | 39 | 1013.1 |
| 20260504205005 | 78 | 290 | 0.9 | 2.6 | 0.00 | 0.00 | 0.00 | 35 | 1013.1 |
| 20260504204005 | 79 | 211 | 0.9 | 4.3 | 0.00 | 0.00 | 0.00 | 36 | 1013.7 |
| 20260504203506 | 79 | 153 | 0.0 | 2.6 | 0.00 | 0.00 | 0.00 | 36 | 1013.7 |
| 20260504203005 | 79 | 158 | 0.9 | 1.7 | 0.00 | 0.00 | 0.00 | 35 | 1013.7 |
| 20260504202505 | 79 | 12 | 0.9 | 1.7 | 0.00 | 0.00 | 0.00 | 35 | 1013.7 |
| 20260504202005 | 81 | 173 | 0.0 | 2.6 | 0.00 | 0.00 | 0.00 | 33 | 1013.7 |
| 20260504201505 | 80 | 124 | 1.7 | 2.6 | 0.00 | 0.00 | 0.00 | 33 | 1013.7 |
| 20260504201005 | 80 | 168 | 0.9 | 2.6 | 0.00 | 0.00 | 0.00 | 31 | 1013.7 |
| 20260504200505 | 80 | 144 | 0.9 | 2.6 | 0.00 | 0.00 | 0.00 | 30 | 1013.7 |
| 20260504200005 | 80 | 53 | 0.0 | 2.6 | 0.00 | 0.00 | 0.00 | 31 | 1013.7 |
| 20260504195504 | 81 | 100 | 0.9 | 2.6 | 0.00 | 0.00 | 0.00 | 29 | 1013.7 |
| 20260504195006 | 81 | 113 | 0.0 | 5.2 | 0.00 | 0.00 | 0.00 | 32 | 1014.6 |
| 20260504194506 | 79 | 124 | 0.9 | 5.2 | 0.00 | 0.00 | 0.00 | 35 | 1014.6 |
| 20260504194005 | 79 | 278 | 0.0 | 4.3 | 0.00 | 0.00 | 0.00 | 34 | 1014.6 |
| 20260504193507 | 79 | 131 | 0.9 | 4.3 | 0.00 | 0.00 | 0.00 | 34 | 1014.6 |
| 20260504192504 | 78 | 257 | 0.9 | 2.6 | 0.00 | 0.00 | 0.00 | 37 | 1014.6 |
| 20260504191505 | 80 | 274 | 0.9 | 2.6 | 0.00 | 0.00 | 0.00 | 39 | 1014.6 |
| 20260504191005 | 79 | 247 | 1.7 | 6.1 | 0.00 | 0.00 | 0.00 | 37 | 1014.6 |
| 20260504190505 | 80 | 252 | 1.7 | 2.6 | 0.00 | 0.00 | 0.00 | 37 | 1014.6 |
| 20260504190006 | 78 | 293 | 0.9 | 2.6 | 0.00 | 0.00 | 0.00 | 37 | 1017.3 |
| 20260504185005 | 78 | 359 | 0.9 | 2.6 | 0.00 | 0.00 | 0.00 | 38 | 1017.3 |
| 20260504184505 | 79 | 210 | 0.9 | 2.6 | 0.00 | 0.00 | 0.00 | 39 | 1017.3 |
| 20260504184007 | 79 | 135 | 1.7 | 4.3 | 0.00 | 0.00 | 0.00 | 38 | 1017.3 |
| 20260504183505 | 78 | 91 | 1.7 | 5.2 | 0.00 | 0.00 | 0.00 | 40 | 1017.3 |
| 20260504183005 | 78 | 276 | 0.9 | 4.3 | 0.00 | 0.00 | 0.00 | 41 | 1017.3 |
| 20260504182505 | 77 | 170 | 0.0 | 1.7 | 0.00 | 0.00 | 0.00 | 42 | 1017.3 |
| 20260504181505 | 78 | 10 | 0.0 | 4.3 | 0.00 | 0.00 | 0.00 | 42 | 1017.3 |
| 20260504181005 | 78 | 241 | 1.7 | 5.2 | 0.00 | 0.00 | 0.00 | 41 | 1017.3 |
| 20260504180506 | 78 | 198 | 0.9 | 4.3 | 0.00 | 0.00 | 0.00 | 44 | 1017.3 |
| 20260504180005 | 78 | 197 | 0.9 | 4.3 | 0.00 | 0.00 | 0.00 | 44 | 1017.3 |
| 20260504175505 | 77 | 280 | 0.0 | 6.1 | 0.00 | 0.00 | 0.00 | 44 | 1017.3 |
| 20260504175005 | 77 | 235 | 0.0 | 2.6 | 0.00 | 0.00 | 0.00 | 43 | 1017.3 |
| 20260504174505 | 77 | 13 | 0.9 | 6.1 | 0.00 | 0.00 | 0.00 | 44 | 1017.3 |
| 20260504174006 | 77 | 97 | 0.9 | 2.6 | 0.00 | 0.00 | 0.00 | 45 | 1017.3 |
| 20260504173505 | 77 | 344 | 0.0 | 0.0 | 0.00 | 0.00 | 0.00 | 45 | 1017.3 |
| 20260504173006 | 75 | 69 | 0.0 | 0.0 | 0.00 | 0.00 | 0.00 | 46 | 1017.3 |
| 20260504172006 | 76 | 254 | 0.0 | 0.0 | 0.00 | 0.00 | 0.00 | 45 | 1017.3 |
| 20260504171504 | 75 | 46 | 0.9 | 2.6 | 0.00 | 0.00 | 0.00 | 47 | 1017.3 |
| 20260504171005 | 75 | 260 | 0.0 | 2.6 | 0.00 | 0.00 | 0.00 | 48 | 1017.3 |
| 20260504170505 | 73 | 30 | 0.0 | 2.6 | 0.00 | 0.00 | 0.00 | 47 | 1017.3 |
| 20260504151006 | 71 | 217 | 0.0 | 6.1 | 0.00 | 0.00 | 0.00 | 50 | 1017.3 |
| 20260504150505 | 70 | 155 | 0.0 | 5.2 | 0.00 | 0.00 | 0.00 | 53 | 1017.3 |
| 20260504140505 | 64 | 289 | 1.7 | 4.3 | 0.00 | 0.00 | 0.00 | 58 | 1016.7 |
| 20260504130505 | 54 | 246 | 0.0 | 0.9 | 0.00 | 0.00 | 0.00 | 83 | 1016.7 |
| 20260504110507 | 41 | 281 | 0.0 | 0.0 | 0.00 | 0.00 | 0.00 | 93 | 1016.7 |
| 20260504100505 | 41 | 281 | 0.0 | 0.0 | 0.00 | 0.00 | 0.00 | 93 | 1016.4 |
| 20260504082005 | 42 | 281 | 0.0 | 0.0 | 0.00 | 0.00 | 0.00 | 92 | 1016.4 |
| 20260504081505 | 42 | 281 | 0.0 | 0.0 | 0.00 | 0.00 | 0.00 | 92 | 1016.4 |
| 20260504080505 | 43 | 281 | 0.0 | 0.0 | 0.00 | 0.00 | 0.00 | 92 | 1016.8 |
| 20260504050505 | 46 | 281 | 0.0 | 0.0 | 0.00 | 0.00 | 0.00 | 90 | 1017.4 |
| 20260504050005 | 46 | 281 | 0.0 | 0.0 | 0.00 | 0.00 | 0.00 | 90 | 1016.3 |
| 20260504045005 | 47 | 281 | 0.0 | 0.0 | 0.00 | 0.00 | 0.00 | 89 | 1016.3 |
| 20260504044505 | 47 | 281 | 0.0 | 0.0 | 0.00 | 0.00 | 0.00 | 89 | 1016.3 |
| 20260504044005 | 47 | 281 | 0.0 | 0.0 | 0.00 | 0.00 | 0.00 | 89 | 1016.3 |
| 20260504043505 | 47 | 281 | 0.0 | 0.0 | 0.00 | 0.00 | 0.00 | 89 | 1016.3 |
| 20260504042505 | 47 | 281 | 0.0 | 0.0 | 0.00 | 0.00 | 0.00 | 89 | 1016.3 |
| 20260504042006 | 48 | 281 | 0.0 | 0.0 | 0.00 | 0.00 | 0.00 | 89 | 1016.3 |
| 20260504041506 | 48 | 281 | 0.0 | 0.0 | 0.00 | 0.00 | 0.00 | 89 | 1016.3 |
| 20260504041005 | 48 | 281 | 0.0 | 0.0 | 0.00 | 0.00 | 0.00 | 88 | 1016.3 |
| 20260504040507 | 48 | 281 | 0.0 | 0.0 | 0.00 | 0.00 | 0.00 | 88 | 1016.3 |